sat.trackr.live / text

‹ back to catalog

UNKNOWN

NORAD 82854

UNKNOWN UNKNOWN UNKNOWN

§ Identity

Operator
Country
Launch date
Launch site
Launch vehicle
Mass (kg)
RCS (m²)

External: N2YO · Heavens-Above

§ Orbital elements

Epoch: 2026-09-20T02:51:04.027104Z

Period
103.70 min
Inclination
82.6908°
Eccentricity
0.0122711
Mean motion
13.88668879 rev/d
Perigee alt
843.6 km
Apogee alt
1,023.0 km
Semi-major
7,311.4 km
B*
7.4623e-4
RAAN
203.7343°
Arg perigee
202.3415°
Mean anomaly
157.2378°
Rev number
64,684

§ Raw data

UNKNOWN1 82854U          26263.11879661  .00000969  00000+0  74623-3 0  99932 82854  82.6908 203.7343 0122711 202.3415 157.2378 13.88668879646840

JSON: /api/v1/satellites/82854 · /tle

For live sub-satellite position, see the globe view (requires WebGL).

§ Visibility from observer

Set your observer location to see the next 7 days of passes ≥ 10°. The values pass through the URL so the page stays shareable.

No JS? Fill the form by hand. The geolocation button needs JavaScript.